Location: Palomar Mountain Lodge
(33.3110°N, 116.8495°W)
Time: 05:27:05
(UTC-07:00)

Tiangong - Pass Details

Date: 18 February 2026
Orbit: 381 x 391 km, 41.5° (Epoch: 8 March)

Event Time Altitude Azimuth Distance (km) Brightness Sun altitude
Rises 18:28:06 0° 301° (WNW) 2,250 2.7 -11.7°
Reaches altitude 10° 18:30:25 10° 316° (NW) 1,394 1.2 -12.2°
Maximum altitude 18:33:04 24° 13° (NNE) 837 -0.6 -12.8°
Enters shadow 18:34:15 19° 48° (NE) 975 -0.6 -13.0°
